Weather History for KDLS - July, 2013

Change the Weather History Date:

Thursday, July 11, 2013

  Actual Average Record
Temperature  
Mean Temperature 70 °F -  
Max Temperature 82 °F 84 °F 107 °F (1990)
Min Temperature 57 °F 58 °F 45 °F (1981)
Cooling Degree Days 4    
Growing Degree Days 20 (Base 50)    
Moisture  
Dew Point 44 °F    
Average Humidity 40    
Maximum Humidity 62    
Minimum Humidity 23    
Precipitation  
Precipitation 0.00 in - - ()
Sea Level Pressure  
Sea Level Pressure 29.90 in    
Wind  
Wind Speed 17 mph (NW)    
Max Wind Speed 30 mph    
Max Gust Speed 36 mph    
Visibility 10 miles    
Events      
Averages and records for this station are not official NWS values.
T = Trace of Precipitation, MM = Missing Value Source: NWS Daily Summary

Daily Weather History Graph

Daily Weather History Graph

Search for Another Location

Airport or City:

Trip Planner

Search our weather history database for the weather conditions in past years. The results will help you decide how hot, cold, wet, or windy it might be!

Date:

Astronomy

Jul. 11, 2013 Rise Set
Actual Time 5:26 AM PDT 8:53 PM PDT
Civil Twilight 4:49 AM PDT 9:30 PM PDT
Nautical Twilight 4:01 AM PDT 10:18 PM PDT
Astronomical Twilight 2:58 AM PDT 11:20 PM PDT
Moon 9:03 AM PDT (7/11) 10:21 PM PDT (7/11)
Length of Visible Light 16h 40m
Length of Day
15h 26m
Waxing Crescent, 11% of the Moon is Illuminated
Jul 11
Waxing Crescent
Jul 15
First Quarter
Jul 22
Full
Jul 29
Last Quarter
Aug 6
New

Hourly Weather History & Observations

Time (PDT) Temp. Dew Point Humidity Pressure Visibility Wind Dir Wind Speed Gust Speed Precip Events Conditions
12:53 AM 66.0 °F 48.0 °F 52% 29.88 in 10.0 mi NW 12.7 mph - N/A   Clear
1:53 AM 64.9 °F 46.0 °F 50% 29.89 in 10.0 mi NNW 18.4 mph 24.2 mph N/A   Clear
2:53 AM 62.1 °F 46.0 °F 56% 29.90 in 10.0 mi NW 19.6 mph 27.6 mph N/A   Clear
3:53 AM 60.1 °F 45.0 °F 57% 29.92 in 10.0 mi NW 17.3 mph 27.6 mph N/A   Clear
4:53 AM 59.0 °F 45.0 °F 60% 29.93 in 10.0 mi NNW 16.1 mph - N/A   Clear
5:53 AM 57.9 °F 45.0 °F 62% 29.95 in 10.0 mi NNW 12.7 mph - N/A   Clear
6:53 AM 60.1 °F 43.0 °F 53% 29.95 in 10.0 mi WNW 13.8 mph 20.7 mph N/A   Clear
7:53 AM 63.0 °F 44.1 °F 50% 29.95 in 10.0 mi NW 25.3 mph 32.2 mph N/A   Clear
8:53 AM 64.0 °F 44.1 °F 48% 29.96 in 10.0 mi NW 24.2 mph 33.4 mph N/A   Clear
9:53 AM 68.0 °F 42.1 °F 39% 29.94 in 10.0 mi NNW 20.7 mph 31.1 mph N/A   Clear
10:53 AM 71.1 °F 43.0 °F 36% 29.94 in 10.0 mi NNW 23.0 mph 32.2 mph N/A   Clear
11:53 AM 73.9 °F 42.1 °F 32% 29.94 in 10.0 mi NNW 23.0 mph 32.2 mph N/A   Clear
12:53 PM 78.1 °F 42.1 °F 28% 29.91 in 10.0 mi NW 16.1 mph 28.8 mph N/A   Clear
1:53 PM 80.1 °F 43.0 °F 27% 29.90 in 10.0 mi NW 18.4 mph - N/A   Clear
2:53 PM 80.1 °F 44.1 °F 28% 29.88 in 10.0 mi NW 18.4 mph 31.1 mph N/A   Clear
3:53 PM 81.0 °F 44.1 °F 27% 29.87 in 10.0 mi NNW 21.9 mph 32.2 mph N/A   Clear
4:53 PM 82.9 °F 41.0 °F 23% 29.85 in 10.0 mi NW 16.1 mph 25.3 mph N/A   Clear
5:53 PM 81.0 °F 41.0 °F 24% 29.84 in 10.0 mi WNW 25.3 mph 32.2 mph N/A   Clear
6:53 PM 79.0 °F 42.1 °F 27% 29.83 in 10.0 mi WNW 29.9 mph 35.7 mph N/A   Clear
7:53 PM 75.9 °F 42.1 °F 30% 29.84 in 10.0 mi WNW 18.4 mph 28.8 mph N/A   Clear
8:53 PM 73.0 °F 43.0 °F 34% 29.85 in 10.0 mi West 12.7 mph 23.0 mph N/A   Clear
9:53 PM 71.1 °F 43.0 °F 36% 29.88 in 10.0 mi NW 4.6 mph 19.6 mph N/A   Clear
10:53 PM 68.0 °F 44.1 °F 42% 29.88 in 10.0 mi WNW 12.7 mph - N/A   Clear
11:53 PM 66.9 °F 45.0 °F 45% 29.88 in 10.0 mi WNW 15.0 mph 21.9 mph N/A   Clear